Regional Weather Roundup
Issued by NWS Bismarck, ND

Home | Current Version | Previous Version | Text Only | Print | Product List | Glossary On
Versions: 1 2 3 4 5 6 7 8 9 10 11 12 13 14 15 16 17 18 19 20 21 22 23 24 25 26 27 28 29 30 31 32 33 34 35 36 37 38 39 40 41 42 43 44 45 46 47 48 49 50
000
ASUS43 KBIS 041402
RWRBIS

NWR BROADCAST TEXT
NATIONAL WEATHER SERVICE BISMARCK ND
900 AM CDT WED MAY 04 2016

NOTE: "FAIR" INDICATES FEW OR NO CLOUDS BELOW 12,000 FEET WITH NO
SIGNIFICANT WEATHER AND/OR OBSTRUCTIONS TO VISIBILITY.


CITY           SKY/WX    TMP DP  RH WIND       PRES   REMARKS
WILLISTON      SUNNY     59  41  51 S6        30.06F
MINOT          MOSUNNY   55  34  45 SE6       30.07S
MINOT AFB      MOSUNNY   52  37  55 SE8       30.05F
BISMARCK       SUNNY     48  36  63 E3        30.13S
DICKINSON      SUNNY     61  39  44 S7        30.09S
GARRISON         N/A     52  31  44 S6        30.09F
HETTINGER ARPT SUNNY     58  37  45 SW5       30.14S
JAMESTOWN      SUNNY     50  35  56 NW7       30.12R
CARRINGTON     FAIR      50  34  53 W5        30.15R
HAZEN          FAIR      48  36  61 CALM      30.12F
OAKES            N/A    N/A N/A N/A MISG        N/A
STANLEY        FAIR      55  39  54 CALM      30.10S
$$

CITY           SKY/WX    TMP DP  RH WIND       PRES   REMARKS
GRAND FORKS    MOSUNNY   49  36  61 NW9       30.12R
GRAND FORKS AF SUNNY     48  36  61 N7        30.12R
DEVILS LAKE    SUNNY     49  38  65 CALM      30.13S
FARGO          SUNNY     50  35  56 N8        30.10R
CAVALIER       FAIR      46  37  71 NW7       30.13R
GRAFTON        FAIR      48  37  66 N6        30.14R
GWINNER        FAIR      52  36  54 N9        30.11S
LANGDON        FAIR      50  36  57 W3        30.12S
$$

CITY           SKY/WX    TMP DP  RH WIND       PRES   REMARKS
ABERDEEN       SUNNY     52  37  56 N9        30.13R
MOBRIDGE       SUNNY     51  40  65 CALM      30.12R
BUFFALO          N/A     57  41  55 SE5       30.08S
RAPID CITY     SUNNY     57  40  52 W5        30.17R
GLASGOW        SUNNY     58  41  53 SE12      30.02R
SIDNEY         SUNNY     57  43  58 S9        30.07F
WOLF POINT     SUNNY     57  44  62 E5        30.04F
GLENDIVE       SUNNY     57  43  58 S6        30.11S
MILES CITY     SUNNY     56  41  57 SE9       30.07S
BAKER          SUNNY     61  42  49 E6        30.12S
$$

CITY           SKY/WX    TMP DP  RH WIND       PRES   REMARKS
BILLINGS       SUNNY     53  39  59 SW10      30.09R
GREAT FALLS    SUNNY     60  37  42 S12       30.01S
$$




USA.gov is the U.S. government's official web portal to all federal, state and local government web resources and services.